User: anonymous
Location: Caltech
(34.1382°N, 118.1253°W)
Time: 10:13:08
(UTC-07:00)
Language:

ALOS - Orbit

View from above orbital plane
View from above orbital plane
View from above satellite
View from above satellite

Ground track
Ground track

The orbit data is extracted from the following two-line orbital elements,

1 28931U 06002A   14207.14765802  .00000222  00000-0  54196-4 0   129
2 28931 097.9803 263.8528 0002155 085.0163 359.9746 14.61216853453014
Epoch (UTC): 26 July 2014 03:32:37
Eccentricity: 0.0002155
inclination: 97.9803°
perigee height: 688 km
apogee height: 691 km
right ascension of ascending node: 263.8528°
argument of perigee: 85.0163°
revolutions per day: 14.61216853
mean anomaly at epoch: 359.9746°
orbit number at epoch: 45301

The dashed part of the orbit path shows where the satellite is in the earth's shadow,  

DLR